TimePST,TemperatureF,Dew PointF,Humidity,Sea Level PressureIn,VisibilityMPH,Wind Direction,Wind SpeedMPH,Gust SpeedMPH,PrecipitationIn,Events,Conditions,WindDirDegrees,DateUTC
12:55 AM,43.0,37.9,82,29.70,10.0,North,5.8,-,N/A,,Clear,10,2012-11-20 08:55:00
1:55 AM,42.1,37.0,82,29.72,10.0,NE,3.5,-,N/A,,Mostly Cloudy,40,2012-11-20 09:55:00
2:55 AM,43.0,37.0,80,29.74,10.0,Calm,Calm,-,N/A,,Scattered Clouds,0,2012-11-20 10:55:00
3:55 AM,42.1,36.0,79,29.73,10.0,Calm,Calm,-,N/A,,Mostly Cloudy,0,2012-11-20 11:55:00
4:55 AM,41.0,37.0,86,29.72,10.0,NE,4.6,-,N/A,,Partly Cloudy,40,2012-11-20 12:55:00
5:55 AM,41.0,37.0,86,29.72,10.0,ENE,3.5,-,N/A,,Overcast,70,2012-11-20 13:55:00
6:55 AM,42.1,37.0,82,29.70,10.0,Calm,Calm,-,N/A,,Clear,0,2012-11-20 14:55:00
7:55 AM,39.9,37.0,89,29.70,10.0,Calm,Calm,-,N/A,,Overcast,0,2012-11-20 15:55:00
8:55 AM,42.1,37.0,82,29.68,10.0,Calm,Calm,-,N/A,,Overcast,0,2012-11-20 16:55:00
9:55 AM,42.1,37.9,85,29.66,10.0,Calm,Calm,-,N/A,,Overcast,0,2012-11-20 17:55:00
10:55 AM,44.1,37.9,79,29.65,10.0,Calm,Calm,-,N/A,,Overcast,0,2012-11-20 18:55:00
11:04 AM,44.6,37.4,76,29.63,10.0,Calm,Calm,-,N/A,,Overcast,0,2012-11-20 19:04:00
11:11 AM,44.6,39.2,81,29.62,10.0,Calm,Calm,-,N/A,,Overcast,0,2012-11-20 19:11:00
11:55 AM,52.0,43.0,71,29.60,10.0,ENE,11.5,18.4,N/A,,Overcast,70,2012-11-20 19:55:00
12:19 PM,50.0,42.8,76,29.59,10.0,East,11.5,-,N/A,,Overcast,90,2012-11-20 20:19:00
12:55 PM,51.1,42.1,71,29.60,10.0,East,11.5,19.6,N/A,,Overcast,100,2012-11-20 20:55:00
1:55 PM,52.0,44.1,74,29.59,10.0,East,16.1,-,N/A,,Mostly Cloudy,100,2012-11-20 21:55:00
2:55 PM,54.0,42.1,64,29.58,10.0,ESE,13.8,-,N/A,,Partly Cloudy,120,2012-11-20 22:55:00
3:55 PM,54.0,39.9,59,29.60,10.0,Variable,3.5,18.4,N/A,,Overcast,0,2012-11-20 23:55:00
4:25 PM,46.4,39.2,76,29.64,9.0,NNW,23.0,34.5,0.00,Rain,Light Rain,330,2012-11-21 00:25:00
4:55 PM,46.9,37.0,68,29.64,10.0,NNW,5.8,-,0.01,,Scattered Clouds,340,2012-11-21 00:55:00
5:55 PM,43.0,36.0,76,29.68,10.0,SW,5.8,-,N/A,,Clear,220,2012-11-21 01:55:00
6:55 PM,41.0,35.1,79,29.69,10.0,Calm,Calm,-,N/A,,Clear,0,2012-11-21 02:55:00
7:55 PM,39.0,34.0,82,29.67,10.0,Calm,Calm,-,N/A,,Clear,0,2012-11-21 03:55:00
8:55 PM,37.9,34.0,86,29.69,10.0,West,3.5,-,N/A,,Clear,280,2012-11-21 04:55:00
9:55 PM,41.0,35.1,79,29.69,10.0,Calm,Calm,-,N/A,,Scattered Clouds,0,2012-11-21 05:55:00
10:55 PM,37.9,35.1,89,29.68,10.0,NNE,3.5,-,N/A,,Clear,20,2012-11-21 06:55:00
11:55 PM,39.0,36.0,89,29.67,10.0,Calm,Calm,-,N/A,,Overcast,0,2012-11-21 07:55:00